Weather History for KPSX - May, 2013

Change the Weather History Date:

Sunday, May 26, 2013

  Actual Average Record
Temperature  
Mean Temperature 82 °F -  
Max Temperature 88 °F - - ()
Min Temperature 77 °F - - ()
Cooling Degree Days 17    
Growing Degree Days 32 (Base 50)    
Moisture  
Dew Point 71 °F    
Average Humidity 71    
Maximum Humidity 84    
Minimum Humidity 55    
Precipitation  
Precipitation 0.00 in - - ()
Sea Level Pressure  
Sea Level Pressure 30.06 in    
Wind  
Wind Speed 11 mph (SSE)    
Max Wind Speed 17 mph    
Max Gust Speed 30 mph    
Visibility 10 miles    
Events      
T = Trace of Precipitation, MM = Missing Value Source: NWS Daily Summary

Daily Weather History Graph

Daily Weather History Graph

Search for Another Location

Airport or City:

Trip Planner

Search our weather history database for the weather conditions in past years. The results will help you decide how hot, cold, wet, or windy it might be!

Date:

Astronomy

May. 26, 2013 Rise Set
Actual Time 6:28 AM CDT 8:15 PM CDT
Civil Twilight 6:02 AM CDT 8:42 PM CDT
Nautical Twilight 5:30 AM CDT 9:13 PM CDT
Astronomical Twilight 4:57 AM CDT 9:47 PM CDT
Moon 10:06 PM CDT (5/26) 7:58 AM CDT (5/26)
Length of Visible Light 14h 39m
Length of Day
13h 46m
Waning Gibbous, 96% of the Moon is Illuminated
May 26
Waning Gibbous
May 31
Last Quarter
Jun 8
New
Jun 16
First Quarter
Jun 23
Full

Hourly Weather History & Observations

Time (CDT) Temp. Heat Index Dew Point Humidity Pressure Visibility Wind Dir Wind Speed Gust Speed Precip Events Conditions
12:53 AM 79.0 °F - 72.0 °F 79% 30.08 in 10.0 mi SE 10.4 mph - N/A   Scattered Clouds
1:04 AM 80.6 °F 84.6 °F 71.6 °F 74% 30.08 in 10.0 mi SSE 11.5 mph - N/A   Mostly Cloudy
1:22 AM 78.8 °F - 71.6 °F 78% 30.08 in 10.0 mi SE 11.5 mph - N/A   Scattered Clouds
1:53 AM 79.0 °F - 71.1 °F 77% 30.07 in 10.0 mi SE 12.7 mph - N/A   Partly Cloudy
3:53 AM 78.1 °F - 72.0 °F 81% 30.06 in 10.0 mi SSE 8.1 mph - N/A   Partly Cloudy
4:53 AM 78.1 °F - 71.1 °F 79% 30.05 in 10.0 mi SSE 9.2 mph - N/A   Clear
5:53 AM 78.1 °F - 71.1 °F 79% 30.05 in 10.0 mi SSE 8.1 mph - N/A   Clear
6:53 AM 77.0 °F - 72.0 °F 84% 30.06 in 10.0 mi SSE 5.8 mph - N/A   Clear
7:53 AM 80.1 °F 83.8 °F 72.0 °F 76% 30.07 in 10.0 mi SSE 6.9 mph - N/A   Clear
8:39 AM 82.4 °F 87.2 °F 71.6 °F 70% 30.08 in 10.0 mi SSE 10.4 mph - N/A   Mostly Cloudy
8:53 AM 82.0 °F 86.3 °F 71.1 °F 69% 30.09 in 10.0 mi SSE 12.7 mph - N/A   Scattered Clouds
9:53 AM 84.0 °F 89.0 °F 71.1 °F 65% 30.09 in 10.0 mi SE 11.5 mph - N/A   Partly Cloudy
10:53 AM 82.9 °F 87.5 °F 71.1 °F 67% 30.10 in 10.0 mi South 9.2 mph - N/A   Partly Cloudy
11:53 AM 86.0 °F 91.5 °F 71.1 °F 61% 30.10 in 10.0 mi South 13.8 mph 20.7 mph N/A   Clear
12:53 PM 87.1 °F 92.8 °F 71.1 °F 59% 30.09 in 10.0 mi SE 13.8 mph - N/A   Clear
1:53 PM 86.0 °F 90.7 °F 70.0 °F 59% 30.07 in 10.0 mi SSE 17.3 mph - N/A   Partly Cloudy
2:53 PM 86.0 °F 90.1 °F 69.1 °F 57% 30.06 in 10.0 mi SSE 16.1 mph - N/A   Partly Cloudy
3:53 PM 86.0 °F 89.4 °F 68.0 °F 55% 30.05 in 10.0 mi SSE 13.8 mph - N/A   Clear
5:53 PM 82.9 °F 87.0 °F 70.0 °F 65% 30.02 in 10.0 mi SSE 12.7 mph - N/A   Partly Cloudy
6:53 PM 82.9 °F 87.0 °F 70.0 °F 65% 30.01 in 10.0 mi SSE 15.0 mph - N/A   Scattered Clouds
7:53 PM 81.0 °F 84.4 °F 70.0 °F 69% 30.01 in 10.0 mi SE 15.0 mph - N/A   Clear
8:53 PM 80.1 °F 83.6 °F 71.1 °F 74% 30.04 in 10.0 mi SSE 10.4 mph - N/A   Partly Cloudy
9:53 PM 80.1 °F 83.6 °F 71.1 °F 74% 30.05 in 10.0 mi SSE 12.7 mph - N/A   Clear
10:53 PM 79.0 °F - 70.0 °F 74% 30.04 in 10.0 mi SE 15.0 mph 29.9 mph N/A   Clear
11:53 PM 79.0 °F - 71.1 °F 77% 30.03 in 10.0 mi SSE 11.5 mph 25.3 mph N/A   Clear